| time (UTC) | temp F | wind direction | speed MPH | gust MPH | rain 1hr in | rain 24hr in | rain mn in | humidity % | barometer mb |
| 20260504110106 | 45 | 196 | 0.0 | 0.0 | 0.00 | 0.00 | 0.00 | 41 | 1013.0 |
| 20260504100106 | 45 | 197 | 0.0 | 0.0 | 0.00 | 0.00 | 0.00 | 41 | 1013.0 |
| 20260504090105 | 47 | 197 | 0.0 | 0.0 | 0.00 | 0.00 | 0.00 | 41 | 1013.0 |
| 20260504080106 | 48 | 197 | 0.0 | 0.0 | 0.00 | 0.00 | 0.00 | 41 | 1013.0 |
| 20260504045058 | 52 | 197 | 0.0 | 0.0 | 0.00 | 0.00 | 0.00 | 41 | 1013.0 |
| 20260504043059 | 53 | 197 | 0.0 | 0.0 | 0.00 | 0.00 | 0.00 | 41 | 1013.0 |
| 20260504042059 | 53 | 197 | 0.0 | 0.0 | 0.00 | 0.00 | 0.00 | 41 | 1013.0 |
| 20260504040100 | 54 | 197 | 0.0 | 0.0 | 0.00 | 0.00 | 0.00 | 41 | 1013.0 |
| 20260504035058 | 54 | 197 | 0.0 | 0.0 | 0.00 | 0.00 | 0.00 | 41 | 1013.0 |
| 20260504034058 | 54 | 197 | 0.0 | 0.0 | 0.00 | 0.00 | 0.00 | 41 | 1013.0 |
| 20260504033059 | 55 | 197 | 0.0 | 0.0 | 0.00 | 0.00 | 0.00 | 41 | 1013.0 |
| 20260504032058 | 55 | 197 | 0.0 | 0.0 | 0.00 | 0.00 | 0.00 | 41 | 1013.0 |
| 20260504031059 | 55 | 197 | 0.0 | 0.0 | 0.00 | 0.00 | 0.00 | 41 | 1013.0 |
| 20260504030100 | 55 | 197 | 0.0 | 0.0 | 0.00 | 0.00 | 0.00 | 41 | 1013.0 |
| 20260504025059 | 56 | 197 | 0.0 | 0.0 | 0.00 | 0.00 | 0.00 | 41 | 1013.0 |
| 20260504024058 | 56 | 197 | 0.0 | 0.0 | 0.00 | 0.00 | 0.00 | 41 | 1013.0 |
| 20260504023058 | 56 | 197 | 0.0 | 0.0 | 0.00 | 0.00 | 0.00 | 41 | 1013.0 |
| 20260504022059 | 57 | 197 | 0.0 | 0.0 | 0.00 | 0.00 | 0.00 | 41 | 1013.0 |
| 20260504021058 | 57 | 197 | 0.0 | 0.0 | 0.00 | 0.00 | 0.00 | 41 | 1013.0 |
| 20260504015059 | 58 | 197 | 0.0 | 0.0 | 0.00 | 0.00 | 0.00 | 41 | 1013.0 |
| 20260504014059 | 58 | 197 | 0.0 | 0.0 | 0.00 | 0.00 | 0.00 | 41 | 1013.0 |
| 20260504013059 | 58 | 197 | 0.0 | 0.0 | 0.00 | 0.00 | 0.00 | 41 | 1013.0 |
| 20260504012059 | 59 | 197 | 0.0 | 0.0 | 0.00 | 0.00 | 0.00 | 41 | 1013.0 |
| 20260504011059 | 59 | 197 | 0.0 | 0.0 | 0.00 | 0.00 | 0.00 | 41 | 1013.0 |
| 20260504010101 | 60 | 197 | 0.0 | 0.0 | 0.00 | 0.00 | 0.00 | 41 | 1013.0 |
| 20260504005058 | 60 | 197 | 0.0 | 0.0 | 0.00 | 0.00 | 0.00 | 41 | 1013.0 |
| 20260504004058 | 60 | 197 | 0.0 | 0.0 | 0.00 | 0.00 | 0.00 | 41 | 1013.0 |
| 20260504003059 | 61 | 197 | 0.0 | 2.0 | 0.00 | 0.00 | 0.00 | 41 | 1013.0 |
| 20260504002058 | 61 | 197 | 1.0 | 2.0 | 0.00 | 0.00 | 0.00 | 41 | 1013.0 |
| 20260504001058 | 63 | 197 | 2.0 | 3.0 | 0.00 | 0.00 | 0.00 | 41 | 1013.0 |
| 20260504000101 | 63 | 197 | 2.0 | 5.0 | 0.00 | 0.00 | 0.00 | 41 | 1013.0 |
| 20260503234058 | 64 | 195 | 4.0 | 8.0 | 0.00 | 0.00 | 0.00 | 41 | 1013.0 |
| 20260503233059 | 64 | 193 | 3.0 | 6.0 | 0.00 | 0.00 | 0.00 | 41 | 1013.0 |
| 20260503232059 | 65 | 202 | 1.0 | 10.0 | 0.00 | 0.00 | 0.00 | 41 | 1013.0 |
| 20260503231059 | 65 | 200 | 4.0 | 10.0 | 0.00 | 0.00 | 0.00 | 41 | 1013.0 |
| 20260503230100 | 65 | 238 | 3.0 | 8.0 | 0.00 | 0.00 | 0.00 | 41 | 1013.0 |
| 20260503225058 | 65 | 238 | 5.0 | 9.0 | 0.00 | 0.00 | 0.00 | 41 | 1013.0 |
| 20260503224059 | 65 | 201 | 4.0 | 12.0 | 0.00 | 0.00 | 0.00 | 41 | 1013.0 |
| 20260503223059 | 65 | 229 | 6.0 | 9.0 | 0.00 | 0.00 | 0.00 | 41 | 1013.0 |
| 20260503222059 | 65 | 247 | 7.0 | 12.0 | 0.00 | 0.00 | 0.00 | 41 | 1013.0 |
| 20260503221058 | 66 | 221 | 6.0 | 12.0 | 0.00 | 0.00 | 0.00 | 41 | 1013.0 |
| 20260503220100 | 66 | 279 | 2.0 | 7.0 | 0.00 | 0.00 | 0.00 | 41 | 1013.0 |
| 20260503215059 | 66 | 261 | 5.0 | 12.0 | 0.00 | 0.00 | 0.00 | 41 | 1013.0 |
| 20260503213058 | 66 | 220 | 4.0 | 12.0 | 0.00 | 0.00 | 0.00 | 41 | 1013.0 |
| 20260503210100 | 67 | 228 | 5.0 | 12.0 | 0.00 | 0.00 | 0.00 | 41 | 1013.0 |
| 20260503205058 | 67 | 212 | 4.0 | 12.0 | 0.00 | 0.00 | 0.00 | 41 | 1013.0 |
| 20260503203058 | 67 | 221 | 5.0 | 12.0 | 0.00 | 0.00 | 0.00 | 41 | 1013.0 |
| 20260503201059 | 66 | 245 | 7.0 | 12.0 | 0.00 | 0.00 | 0.00 | 41 | 1013.0 |
| 20260503200100 | 67 | 225 | 5.0 | 8.0 | 0.00 | 0.00 | 0.00 | 41 | 1013.0 |
| 20260503195058 | 68 | 188 | 2.0 | 12.0 | 0.00 | 0.00 | 0.00 | 41 | 1013.0 |
| 20260503194059 | 67 | 184 | 1.0 | 13.0 | 0.00 | 0.00 | 0.00 | 41 | 1013.0 |
| 20260503192059 | 68 | 134 | 2.0 | 12.0 | 0.00 | 0.00 | 0.00 | 41 | 1013.0 |
| 20260503191059 | 66 | 183 | 5.0 | 14.0 | 0.00 | 0.00 | 0.00 | 41 | 1013.0 |
| 20260503185058 | 67 | 194 | 3.0 | 12.0 | 0.00 | 0.00 | 0.00 | 41 | 1013.0 |
| 20260503183059 | 66 | 216 | 3.0 | 10.0 | 0.00 | 0.00 | 0.00 | 41 | 1013.0 |
| 20260503182058 | 65 | 199 | 3.0 | 12.0 | 0.00 | 0.00 | 0.00 | 41 | 1013.0 |
| 20260503181059 | 65 | 215 | 6.0 | 12.0 | 0.00 | 0.00 | 0.00 | 41 | 1013.0 |
| 20260503180100 | 65 | 158 | 2.0 | 7.0 | 0.00 | 0.00 | 0.00 | 41 | 1013.0 |
| 20260503175058 | 64 | 303 | 3.0 | 7.0 | 0.00 | 0.00 | 0.00 | 41 | 1013.0 |
| 20260503173059 | 63 | 297 | 3.0 | 10.0 | 0.00 | 0.00 | 0.00 | 41 | 1013.0 |
| 20260503172058 | 63 | 176 | 1.0 | 7.0 | 0.00 | 0.00 | 0.00 | 41 | 1013.0 |
| 20260503171058 | 62 | 204 | 3.0 | 10.0 | 0.00 | 0.00 | 0.00 | 41 | 1013.0 |
| 20260503131059 | 50 | 60 | 1.0 | 3.0 | 0.00 | 0.00 | 0.00 | 41 | 1013.0 |